Weather History for KFLL - September, 2011

Change the Weather History Date:

Friday, September 30, 2011

  Actual Average Record
Temperature  
Mean Temperature 85 °F 83 °F  
Max Temperature 93 °F 88 °F 95 °F (1980)
Min Temperature 77 °F 77 °F 63 °F (1919)
Degree Days  
Heating Degree Days 0 0  
Month to date heating degree days 0 0  
Since 1 July heating degree days 0 0  
Cooling Degree Days 20 18  
Month to date cooling degree days 568 546  
Year to date cooling degree days 3853 3712  
Growing Degree Days 34 (Base 50)    
Moisture  
Dew Point 73 °F    
Average Humidity 69    
Maximum Humidity 91    
Minimum Humidity 47    
Precipitation  
Precipitation 0.01 in 0.25 in 3.30 in (1914)
Month to date precipitation 6.32 8.59  
Year to date precipitation 23.35 49.66  
Snow  
Snow 0.00 in - - ()
Month to date snowfall 0.0  
Since 1 July snowfall 0.0  
Since 1 September snowfall 0.0  
Snow Depth 0.00 in    
Sea Level Pressure  
Sea Level Pressure 29.79 in    
Wind  
Wind Speed 4 mph (NW)    
Max Wind Speed 13 mph    
Max Gust Speed 28 mph    
Visibility 10 miles    
Events Rain , Thunderstorm    
T = Trace of Precipitation, MM = Missing Value Source: NWS Daily Summary

Daily Weather History Graph

Daily Weather History Graph

Search for Another Location

Airport or City:

Trip Planner

Search our weather history database for the weather conditions in past years. The results will help you decide how hot, cold, wet, or windy it might be!

Date:

Astronomy

Sep. 30, 2011 Rise Set
Actual Time 7:12 AM EDT 7:08 PM EDT
Civil Twilight 6:49 AM EDT 7:31 PM EDT
Nautical Twilight 6:22 AM EDT 7:58 PM EDT
Astronomical Twilight 5:55 AM EDT 8:24 PM EDT
Moon 10:39 AM EDT (9/30) 9:39 PM EDT (9/30)
Length of Visible Light 12h 42m
Length of Day
11h 56m
Waxing Crescent, 15% of the Moon is Illuminated
Sep 30
Waxing Crescent
Oct 3
First Quarter
Oct 11
Full
Oct 19
Last Quarter
Oct 26
New

Hourly Weather History & Observations

Time (EDT) Temp. Heat Index Dew Point Humidity Pressure Visibility Wind Dir Wind Speed Gust Speed Precip Events Conditions
12:53 AM 82.0 °F 87.9 °F 73.9 °F 76% 29.83 in 10.0 mi East 10.4 mph 18.4 mph N/A   Partly Cloudy
1:53 AM 80.1 °F 83.6 °F 71.1 °F 74% 29.83 in 10.0 mi Calm Calm - N/A   Partly Cloudy
2:53 AM 81.0 °F 84.4 °F 70.0 °F 69% 29.81 in 10.0 mi Calm Calm - N/A   Partly Cloudy
3:53 AM 79.0 °F - 72.0 °F 79% 29.80 in 10.0 mi Calm Calm - N/A   Partly Cloudy
4:53 AM 79.0 °F - 73.0 °F 82% 29.80 in 10.0 mi NW 4.6 mph - N/A   Mostly Cloudy
5:25 AM 78.8 °F - 73.4 °F 83% 29.80 in 1.5 mi NNW 5.8 mph - 0.01 in Rain Light Rain
5:29 AM 78.8 °F - 75.2 °F 89% 29.80 in 8.0 mi NNW 5.8 mph - 0.01 in Rain Light Rain
5:53 AM 80.1 °F 85.1 °F 75.0 °F 85% 29.80 in 10.0 mi NW 3.5 mph - 0.01 in   Mostly Cloudy
6:53 AM 79.0 °F - 75.0 °F 88% 29.80 in 10.0 mi NW 4.6 mph - N/A   Partly Cloudy
7:53 AM 80.1 °F 85.1 °F 75.0 °F 85% 29.81 in 10.0 mi WNW 3.5 mph - N/A   Partly Cloudy
8:53 AM 82.0 °F 89.4 °F 75.9 °F 82% 29.82 in 10.0 mi Calm Calm - N/A   Partly Cloudy
9:53 AM 84.9 °F 93.3 °F 75.0 °F 72% 29.83 in 10.0 mi North 4.6 mph - N/A   Partly Cloudy
10:53 AM 86.0 °F 93.0 °F 73.0 °F 65% 29.83 in 10.0 mi NW 4.6 mph - 0.00 in   Scattered Clouds
11:53 AM 87.1 °F 93.6 °F 72.0 °F 61% 29.83 in 10.0 mi NW 5.8 mph - 0.00 in   Mostly Cloudy
12:53 PM 90.0 °F 96.4 °F 71.1 °F 54% 29.81 in 10.0 mi North 5.8 mph - N/A   Scattered Clouds
1:53 PM 90.0 °F 95.4 °F 70.0 °F 52% 29.79 in 10.0 mi WNW 8.1 mph - N/A   Scattered Clouds
2:53 PM 91.9 °F 96.9 °F 69.1 °F 47% 29.76 in 10.0 mi NW 8.1 mph - 0.00 in   Scattered Clouds
3:53 PM 90.0 °F 92.4 °F 66.0 °F 45% 29.75 in 10.0 mi NW 4.6 mph - N/A   Scattered Clouds
4:53 PM 86.0 °F 95.1 °F 75.0 °F 70% 29.74 in 10.0 mi East 6.9 mph - N/A   Scattered Clouds
5:53 PM 84.9 °F 93.3 °F 75.0 °F 72% 29.73 in 10.0 mi ESE 6.9 mph - N/A   Scattered Clouds
6:42 PM 84.2 °F 92.3 °F 75.2 °F 74% 29.72 in 10.0 mi East 8.1 mph - N/A Thunderstorm Thunderstorm
6:53 PM 84.0 °F 91.9 °F 75.0 °F 74% 29.74 in 10.0 mi NE 5.8 mph - 0.00 in Rain , Thunderstorm Light Thunderstorms and Rain
7:53 PM 79.0 °F - 73.9 °F 84% 29.76 in 8.0 mi SW 4.6 mph - 0.00 in Thunderstorm Thunderstorm
8:18 PM 78.8 °F - 73.4 °F 83% 29.77 in 10.0 mi SSW 4.6 mph - N/A   Scattered Clouds
8:53 PM 78.1 °F - 72.0 °F 81% 29.78 in 10.0 mi WSW 3.5 mph - N/A   Scattered Clouds
9:12 PM 78.8 °F - 71.6 °F 78% 29.79 in 10.0 mi Calm Calm - N/A Thunderstorm Thunderstorm
9:29 PM 80.6 °F 84.6 °F 71.6 °F 74% 29.80 in 10.0 mi ENE 8.1 mph - N/A   Mostly Cloudy
9:53 PM 79.0 °F - 72.0 °F 79% 29.80 in 10.0 mi Calm Calm - N/A   Mostly Cloudy
10:53 PM 79.0 °F - 72.0 °F 79% 29.80 in 10.0 mi SW 4.6 mph - N/A   Mostly Cloudy
11:53 PM 78.1 °F - 72.0 °F 81% 29.80 in 10.0 mi Calm Calm - N/A   Partly Cloudy